This is the latest recevied weather packets stored in our database for station/object KC7UNY-13. If no packets are shown the sender has not sent any weather packets the latest 10 day(s).
| Time | Temp. | Humidity | Pressure | Rain* | Wind** | Luminosity | Snow |
|---|---|---|---|---|---|---|---|
| 1777748955 | 31.67° C | 24% | 1013.3 hPa | 0 mm | - | 799 W/m² | - |
| 1777748652 | 31.67° C | 24% | 1013.4 hPa | 0 mm | - | 795 W/m² | - |
| 1777748348 | 31.67° C | 25% | 1013.5 hPa | 0 mm | - | 794 W/m² | - |
| 1777748043 | 31.67° C | 25% | 1013.8 hPa | 0 mm | - | 790 W/m² | - |
| 1777747741 | 32.22° C | 24% | 1013.6 hPa | 0 mm | - | 788 W/m² | - |
| 1777747436 | 31.67° C | 25% | 1013.7 hPa | 0 mm | - | 783 W/m² | - |
| 1777747133 | 31.67° C | 25% | 1014 hPa | 0 mm | - | 779 W/m² | - |
| 1777746829 | 31.67° C | 25% | 1014 hPa | 0 mm | - | 773 W/m² | - |
| 1777746524 | 31.67° C | 25% | 1014.1 hPa | 0 mm | - | 767 W/m² | - |
| 1777746215 | 31.11° C | 26% | 1014.1 hPa | 0 mm | - | 762 W/m² | - |
| 1777745911 | 31.11° C | 26% | 1014.2 hPa | 0 mm | - | 756 W/m² | - |
| 1777745610 | 31.11° C | 27% | 1014.3 hPa | 0 mm | - | 751 W/m² | - |
| 1777745308 | 30.56° C | 27% | 1014.5 hPa | 0 mm | - | 745 W/m² | - |
| 1777745005 | 30.56° C | 27% | 1014.4 hPa | 0 mm | - | 736 W/m² | - |
| 1777744700 | 31.67° C | 26% | 1014.3 hPa | 0 mm | - | 727 W/m² | - |
| 1777744394 | 31.11° C | 27% | 1014.4 hPa | 0 mm | - | 720 W/m² | - |
| 1777744092 | 30.56° C | 27% | 1014.5 hPa | 0 mm | - | 710 W/m² | - |
| 1777743789 | 31.11° C | 27% | 1014.4 hPa | 0 mm | - | 700 W/m² | - |
| 1777743485 | 30.56° C | 28% | 1014.5 hPa | 0 mm | - | 691 W/m² | - |
| 1777743183 | 30° C | 28% | 1014.5 hPa | 0 mm | - | 681 W/m² | - |
| 1777742881 | 30° C | 29% | 1014.6 hPa | 0 mm | - | 670 W/m² | - |
| 1777742576 | 30° C | 29% | 1014.6 hPa | 0 mm | - | 658 W/m² | - |
| 1777742272 | 30° C | 29% | 1014.5 hPa | 0 mm | - | 647 W/m² | - |
| 1777741969 | 29.44° C | 29% | 1014.5 hPa | 0 mm | - | 635 W/m² | - |
| 1777741666 | 30° C | 29% | 1014.6 hPa | 0 mm | - | 622 W/m² | - |
* Rain latest hour (hover to see other rain measurements)
** Current wind speed in m/s (hover to see current wind gust speed)